Fort Collins, CO

2:04 PM MST on December 11, 2019 (GMT -0700)
Fort Collins-Loveland Municipal

Weather History for KFNL - October, 2019

Change the Weather History Date:

Tuesday, October 1, 2019

  Actual Average Record
Temperature  
Mean Temperature 48 °F -  
Max Temperature 54 °F - 87 °F (2005)
Min Temperature 42 °F - 30 °F (2003)
Degree Days  
Heating Degree Days 17    
Month to date heating degree days  
Cooling Degree Days 0    
Month to date cooling degree days  
Moisture  
Dew Point 46 °F    
Average Humidity 94    
Maximum Humidity 100    
Minimum Humidity 77    
Precipitation  
Precipitation 0.12 in - 0.60 in (2004)
Snow  
Snow 0.00 in - - ()
Snow Depth -    
Sea Level Pressure  
Sea Level Pressure 29.97 in    
Wind  
Wind Speed 7 mph (ESE)    
Max Wind Speed 14 mph    
Max Gust Speed -    
Visibility 6 miles    
Events Rain    
T = Trace of Precipitation, MM = Missing Value Source: NWS Daily Summary

Daily Weather History Graph

Daily Weather History Graph

Search for Another Location

Airport or City:

Astronomy

Oct. 01, 2019 Rise Set
Actual Time 6:56 AM MDT 6:42 PM MDT
Civil Twilight 6:29 AM MDT 7:09 PM MDT
Nautical Twilight 5:57 AM MDT 7:41 PM MDT
Astronomical Twilight 5:25 AM MDT 8:13 PM MDT
Moon 10:15 AM MDT (10/1) 8:56 PM MDT (10/1)
Length of Visible Light 12h 40m
Length of Day
11h 46m
Waxing Crescent, 12% of the Moon is Illuminated
Oct 1
Waxing Crescent
Oct 5
First Quarter
Oct 13
Full
Oct 21
Last Quarter
Oct 27
New

Hourly Weather History & Observations

Time (MDT) Temp. Windchill Dew Point Humidity Pressure Visibility Wind Dir Wind Speed Gust Speed Precip Events Conditions
12:56 AM 54.0 °F - 46.9 °F 77% 29.86 in 10.0 mi Calm Calm - N/A   Overcast
1:56 AM 53.1 °F - 48.0 °F 83% 29.86 in 10.0 mi SSE 5.8 mph - N/A   Overcast
2:13 AM 51.8 °F - 48.2 °F 88% 29.99 in 6.0 mi SSE 4.6 mph - 0.00 in Rain Light Rain
2:24 AM 51.8 °F - 50.0 °F 94% 29.99 in 3.0 mi SE 4.6 mph - 0.00 in Rain Light Rain
2:35 AM 51.8 °F - 50.0 °F 94% 29.98 in 2.5 mi SE 4.6 mph - 0.00 in Rain Light Rain
2:47 AM 51.8 °F - 50.0 °F 94% 29.98 in 4.0 mi SSE 5.8 mph - 0.00 in Rain Light Rain
2:56 AM 51.1 °F - 50.0 °F 96% 29.85 in 4.0 mi SSE 4.6 mph - 0.00 in Rain Light Rain
3:49 AM 51.8 °F - 50.0 °F 94% 29.98 in 2.5 mi SE 6.9 mph - 0.00 in Rain Light Rain
3:56 AM 51.1 °F - 50.0 °F 96% 29.85 in 4.0 mi SE 8.1 mph - 0.00 in Rain Light Rain
4:31 AM 48.2 °F - 48.2 °F 100% 29.98 in 2.0 mi East 12.7 mph - 0.00 in Rain Light Rain
4:56 AM 48.0 °F - 46.9 °F 96% 29.87 in 2.0 mi East 13.8 mph - 0.01 in Rain Light Rain
5:24 AM 48.2 °F - 46.4 °F 93% 29.99 in 2.5 mi East 13.8 mph - 0.01 in Rain Light Rain
5:41 AM 46.4 °F 40.4 °F 46.4 °F 100% 29.99 in 3.0 mi East 13.8 mph - 0.01 in Rain Light Rain
5:56 AM 46.9 °F - 46.0 °F 97% 29.90 in 6.0 mi ESE 11.5 mph - 0.02 in Rain Light Rain
6:12 AM 46.4 °F 42.4 °F 46.4 °F 100% 30.00 in 3.0 mi East 8.1 mph - 0.00 in Rain Light Rain
6:26 AM 46.4 °F 41.9 °F 46.4 °F 100% 30.00 in 2.5 mi East 9.2 mph - 0.01 in Rain Light Rain
6:49 AM 46.4 °F 41.9 °F 46.4 °F 100% 30.00 in 3.0 mi East 9.2 mph - 0.01 in Rain Light Rain
6:56 AM 46.9 °F - 46.0 °F 97% 29.93 in 2.0 mi East 6.9 mph - 0.02 in Rain Light Rain
7:18 AM 46.4 °F 42.9 °F 46.4 °F 100% 30.01 in 1.2 mi ENE 6.9 mph - 0.00 in Rain Light Rain
7:56 AM 46.0 °F 41.4 °F 46.0 °F 100% 29.95 in 2.5 mi ENE 9.2 mph - 0.01 in Rain Light Rain
8:02 AM 46.4 °F 41.5 °F 46.4 °F 100% 30.02 in 3.0 mi East 10.4 mph - 0.00 in Rain Light Rain
8:26 AM 46.4 °F 41.9 °F 46.4 °F 100% 30.02 in 4.0 mi East 9.2 mph - 0.01 in Rain Light Rain
8:48 AM 46.4 °F 41.9 °F 46.4 °F 100% 30.02 in 4.0 mi East 9.2 mph - 0.02 in Rain Light Rain
8:56 AM 46.9 °F - 45.0 °F 93% 29.95 in 8.0 mi East 8.1 mph - 0.02 in Rain Light Rain
9:17 AM 46.4 °F 41.9 °F 46.4 °F 100% 30.02 in 4.0 mi ENE 9.2 mph - 0.00 in Rain Light Rain
9:56 AM 46.9 °F - 46.0 °F 97% 29.94 in 7.0 mi East 10.4 mph - 0.00 in Rain Light Rain
10:56 AM 48.0 °F - 46.0 °F 93% 29.94 in 10.0 mi East 9.2 mph - 0.00 in   Overcast
11:56 AM 48.9 °F - 46.0 °F 90% 29.92 in 10.0 mi East 8.1 mph - N/A   Overcast
12:34 PM 48.2 °F - 44.6 °F 87% 29.99 in 10.0 mi ESE 12.7 mph - N/A   Overcast
12:56 PM 48.9 °F - 45.0 °F 86% 29.91 in 10.0 mi ESE 5.8 mph - N/A   Overcast
1:14 PM 48.2 °F - 44.6 °F 87% 29.98 in 10.0 mi ESE 8.1 mph - N/A   Overcast
1:56 PM 48.9 °F - 45.0 °F 86% 29.89 in 10.0 mi East 9.2 mph - N/A   Overcast
2:56 PM 48.9 °F - 45.0 °F 86% 29.89 in 10.0 mi East 5.8 mph - N/A   Overcast
3:56 PM 48.9 °F - 45.0 °F 86% 29.89 in 10.0 mi East 5.8 mph - N/A   Overcast
4:56 PM 48.9 °F - 45.0 °F 86% 29.91 in 9.0 mi ESE 5.8 mph - 0.00 in Rain Light Rain
5:56 PM 48.9 °F - 45.0 °F 86% 29.93 in 9.0 mi East 10.4 mph - 0.00 in Rain Light Rain
6:39 PM 46.4 °F 40.7 °F 44.6 °F 93% 30.00 in 6.0 mi ESE 12.7 mph - 0.00 in Rain Light Rain
6:56 PM 46.0 °F 41.0 °F 45.0 °F 96% 29.96 in 4.0 mi ESE 10.4 mph - 0.00 in Rain Light Rain
7:36 PM 46.4 °F 41.1 °F 44.6 °F 93% 30.02 in 9.0 mi East 11.5 mph - 0.01 in Rain Light Rain
7:56 PM 46.0 °F 41.9 °F 44.1 °F 93% 29.98 in 9.0 mi East 8.1 mph - 0.01 in Rain Light Rain
8:56 PM 44.1 °F 39.0 °F 44.1 °F 100% 30.00 in 7.0 mi East 9.2 mph - 0.01 in Rain Light Rain
9:26 PM 44.6 °F 38.8 °F 42.8 °F 93% 30.04 in 5.0 mi East 11.5 mph - 0.00 in Rain Light Rain
9:56 PM 44.1 °F 39.0 °F 43.0 °F 96% 30.01 in 5.0 mi East 9.2 mph - 0.00 in Rain Light Rain
10:15 PM 44.6 °F 40.2 °F 42.8 °F 93% 30.06 in 6.0 mi East 8.1 mph - 0.00 in Rain Light Rain
10:23 PM 44.6 °F 40.2 °F 42.8 °F 93% 30.06 in 5.0 mi ESE 8.1 mph - 0.00 in Rain Light Rain
10:56 PM 44.1 °F 39.5 °F 43.0 °F 96% 30.02 in 2.5 mi East 8.1 mph - 0.01 in Rain Light Rain
11:11 PM 42.8 °F 37.0 °F 42.8 °F 100% 30.06 in 6.0 mi ESE 10.4 mph - 0.00 in Rain Light Rain
11:29 PM 42.8 °F 37.5 °F 42.8 °F 100% 30.05 in 10.0 mi East 9.2 mph - 0.01 in Rain Light Rain
11:52 PM 42.8 °F 37.5 °F 42.8 °F 100% 30.06 in 4.0 mi East 9.2 mph - 0.01 in Rain Light Rain
11:56 PM 43.0 °F 36.8 °F 42.1 °F 97% 30.01 in 3.0 mi East 11.5 mph - 0.01 in Rain Light Rain